Weather in Arkadak

Russia / Saratov Oblast     51°56′19″N   43°29′59″E
temp.,
°C
wind,
m/s
gust,
m/s
humid.,
%
clouds,
%
prec.,
mm/h
press.,
hPa
HPBL,
m
9 may, sun
sun901:00+13sse71681100 0.6 1008459
04:00+12sse51191100 1.7 1008250
07:00+12sse41191100 0.2 1007345
10:00+15s5886100 0.8 1007665
13:00+8wnw7995100 0.4 1009374
16:00+7wnw5892100 5.4 1012433
19:00+7w3692100 2.2 1014499
22:00+6nw4894100 3.7 1015428
10 may, mon
mon1001:00+6nw51096100 1.8 1015443
04:00+6nnw61197100 5.0 1015439
07:00+6n71296100 3.1 1016494
10:00+8n81496100 6.9 1015444
13:00+11nne91492100 0.3 1016590
16:00+13nne91690100 0.4 1015632
19:00+13nne111989100 0.5 1015567
22:00+12ne81789100 0.6 1017485
11 may, tue
tue1101:00+13ne81690100 0.0 1016444
04:00+14ne9188593 0.0 1016540
07:00+10sse5895100 0.3 1020449
10:00+11se47788 0.6 1022662
13:00+16se56515 0.0 10231253
16:00+16sse4552100 0.0 10241416
19:00+12ese2481100 0.3 1024119
22:00+10ne3687100 0.5 1025312
12 may, wed
wed1201:00+10ene2494100 0.3 1024194
04:00+10nw2298100 3.3 102379
07:00+10nnw3498100 4.2 1023148
10:00+13ne369294 4.3 1022361
13:00+19ese6863100 0.0 10221468
16:00+19ese4870100 0.1 1021764
19:00+15ese61379100 0.1 1021464
22:00+14ese41084100 0.2 1021297
13 may, thu
thu1301:00+12e498622 0.0 1021177
04:00+12e4108799 0.1 1020223
07:00+13e51282100 0.2 1019384
10:00+14ese51084100 0.7 1019453
13:00+20se576678 0.0 10191331
16:00+21sse46649 1.8 10191241
19:00+20sw24740 0.9 1019136
22:00+16e22815 0.9 101911